Simultaneous Nadir Overpasses (SNOs) Predictions

Prediction of SNOs between AQUA and METOP-B Satellite Orbit:

Table of predicted SNOs for the next 14.0 days since TLE Epoch: 1/16/2015
Index Date (AQUA) Time (AQUA) Lat,Lon (AQUA) SZA (AQUA ) Date (METOP-B) Time (METOP-B) Lat,Lon (METOP-B) SZA (METOP-B ) Distance(km) Time Diff (sec)
1 01/17/2015 19:07:45 73.64,-112.28 94.38 01/17/2015 19:06:32 73.56,-112.63 94.32 14.53 73
2 01/17/2015 19:57:12 -73.72, 55.20 85.55 01/17/2015 19:57:10 -73.74, 55.12 85.53 3.11 2
3 01/17/2015 20:46:41 73.79,-137.33 94.53 01/17/2015 20:47:49 73.79,-137.43 94.52 3.29 68
4 01/20/2015 14:42:04 73.67, -45.92 93.84 01/20/2015 14:40:53 73.67, -45.95 93.85 0.91 71
5 01/20/2015 15:31:31 -73.75, 121.57 86.10 01/20/2015 15:31:33 -73.75, 121.57 86.09 0.73 2
6 01/20/2015 16:21:00 73.82, -70.97 93.98 01/20/2015 16:22:12 73.80, -70.98 93.95 2.33 72
7 01/23/2015 10:16:21 73.69, 20.48 93.23 01/23/2015 10:15:15 73.68, 20.48 93.23 0.68 66
8 01/23/2015 11:05:48 -73.76,-172.02 86.71 01/23/2015 11:05:55 -73.76,-172.00 86.71 0.94 7
9 01/23/2015 11:55:19 73.94, -4.80 93.48 01/23/2015 11:56:31 73.96, -4.19 93.47 18.78 72
10 01/26/2015 05:50:38 73.68, 86.93 92.55 01/26/2015 05:49:38 73.68, 86.90 92.56 0.88 60
11 01/26/2015 06:40:05 -73.75,-105.57 87.40 01/26/2015 06:40:18 -73.76,-105.59 87.38 1.74 13
12 01/26/2015 07:29:41 74.20, 61.05 93.08 01/26/2015 07:30:49 74.21, 62.84 93.02 54.04 68
13 01/29/2015 01:24:55 73.72, 153.30 91.86 01/29/2015 01:24:00 73.73, 153.41 91.88 3.90 55
14 01/29/2015 02:14:22 -73.78, -39.19 88.09 01/29/2015 02:14:41 -73.76, -39.19 88.11 1.92 19




NCC Satellite Simultaneous Nadir Overpasses (SNOs) Prediction Service
